| time (UTC) | temp F | wind direction | speed MPH | gust MPH | rain 1hr in | rain 24hr in | rain mn in | humidity % | barometer mb |
| 20260507153013 | 50 | 252 | 1.0 | 4.0 | 0.00 | 0.15 | 0.01 | 66 | 1013.5 |
| 20260507151559 | 49 | 264 | 2.0 | 6.0 | 0.00 | 0.15 | 0.01 | 70 | 1013.7 |
| 20260507150053 | 49 | 248 | 1.0 | 2.0 | 0.00 | 0.16 | 0.01 | 71 | 1013.7 |
| 20260507144557 | 48 | 165 | 0.0 | 3.0 | 0.00 | 0.16 | 0.01 | 69 | 1013.7 |
| 20260507143045 | 48 | 180 | 1.0 | 3.0 | 0.00 | 0.16 | 0.01 | 69 | 1013.8 |
| 20260507141558 | 46 | 32 | 0.0 | 2.0 | 0.00 | 0.16 | 0.01 | 75 | 1013.9 |
| 20260507140014 | 45 | 83 | 0.0 | 2.0 | 0.00 | 0.18 | 0.01 | 81 | 1014.0 |
| 20260507134559 | 43 | 248 | 0.0 | 3.0 | 0.00 | 0.18 | 0.01 | 86 | 1014.2 |
| 20260507133007 | 41 | 274 | 0.0 | 2.0 | 0.00 | 0.18 | 0.01 | 91 | 1014.4 |
| 20260507131534 | 40 | 285 | 0.0 | 2.0 | 0.00 | 0.18 | 0.01 | 93 | 1014.6 |
| 20260507130030 | 39 | 22 | 0.0 | 1.0 | 0.00 | 0.23 | 0.01 | 93 | 1014.6 |
| 20260507124508 | 39 | 22 | 0.0 | 0.0 | 0.00 | 0.23 | 0.01 | 94 | 1014.5 |
| 20260507123011 | 39 | 22 | 0.0 | 2.0 | 0.00 | 0.23 | 0.01 | 95 | 1014.6 |
| 20260507121537 | 39 | 22 | 0.0 | 1.0 | 0.00 | 0.23 | 0.01 | 96 | 1014.5 |
| 20260507120030 | 39 | 22 | 0.0 | 4.0 | 0.00 | 0.28 | 0.01 | 95 | 1014.6 |
| 20260507114509 | 39 | 310 | 0.0 | 2.0 | 0.00 | 0.28 | 0.01 | 95 | 1014.6 |
| 20260507113012 | 39 | 255 | 0.0 | 0.0 | 0.00 | 0.28 | 0.01 | 96 | 1014.5 |
| 20260507111531 | 38 | 255 | 0.0 | 0.0 | 0.00 | 0.28 | 0.01 | 95 | 1014.3 |
| 20260507110045 | 39 | 255 | 0.0 | 0.0 | 0.00 | 0.34 | 0.01 | 95 | 1014.2 |
| 20260507104559 | 39 | 255 | 0.0 | 0.0 | 0.00 | 0.34 | 0.01 | 96 | 1014.1 |
| 20260507103056 | 38 | 255 | 0.0 | 0.0 | 0.00 | 0.34 | 0.01 | 96 | 1014.3 |
| 20260507101550 | 38 | 255 | 0.0 | 0.0 | 0.01 | 0.34 | 0.01 | 96 | 1014.0 |
| 20260507100043 | 37 | 255 | 0.0 | 0.0 | 0.01 | 0.42 | 0.01 | 95 | 1013.9 |
| 20260507094525 | 37 | 255 | 0.0 | 0.0 | 0.01 | 0.42 | 0.01 | 95 | 1013.9 |
| 20260507093043 | 37 | 255 | 0.0 | 0.0 | 0.01 | 0.42 | 0.01 | 95 | 1013.8 |
| 20260507091506 | 37 | 255 | 0.0 | 0.0 | 0.00 | 0.41 | 0.00 | 95 | 1014.0 |
| 20260507090106 | 37 | 255 | 0.0 | 0.0 | 0.00 | 0.47 | 0.00 | 95 | 1013.7 |
| 20260507090006 | 37 | 255 | 0.0 | 0.0 | 0.00 | 0.47 | 0.00 | 95 | 1013.6 |
| 20260507084558 | 37 | 255 | 0.0 | 0.0 | 0.00 | 0.47 | 0.00 | 95 | 1013.6 |
| 20260507083058 | 36 | 255 | 0.0 | 0.0 | 0.00 | 0.47 | 0.00 | 95 | 1013.3 |
| 20260507081556 | 36 | 255 | 0.0 | 0.0 | 0.00 | 0.47 | 0.00 | 95 | 1014.0 |
| 20260507080038 | 36 | 255 | 0.0 | 0.0 | 0.00 | 0.56 | 0.00 | 94 | 1014.0 |
| 20260507074537 | 37 | 255 | 0.0 | 0.0 | 0.00 | 0.56 | 0.00 | 94 | 1013.7 |
| 20260507073049 | 37 | 255 | 0.0 | 0.0 | 0.00 | 0.56 | 0.00 | 95 | 1013.6 |
| 20260507071536 | 38 | 255 | 0.0 | 0.0 | 0.00 | 0.56 | 0.00 | 94 | 1014.0 |
| 20260507070028 | 38 | 255 | 0.0 | 0.0 | 0.00 | 0.69 | 0.00 | 94 | 1014.1 |
| 20260507064513 | 39 | 255 | 0.0 | 0.0 | 0.00 | 0.69 | 0.00 | 94 | 1014.3 |
| 20260507063102 | 39 | 255 | 0.0 | 0.0 | 0.00 | 0.69 | 0.00 | 94 | 1014.1 |
| 20260507061550 | 39 | 255 | 0.0 | 0.0 | 0.00 | 0.69 | 0.00 | 94 | 1014.1 |
| 20260507060005 | 39 | 255 | 0.0 | 0.0 | 0.00 | 0.84 | 0.00 | 94 | 1013.9 |
| 20260507054501 | 40 | 255 | 0.0 | 0.0 | 0.00 | 0.84 | 0.00 | 94 | 1014.0 |
| 20260507053050 | 40 | 255 | 0.0 | 0.0 | 0.00 | 0.84 | 0.00 | 95 | 1014.3 |
| 20260507051542 | 41 | 255 | 0.0 | 0.0 | 0.00 | 0.84 | 0.00 | 95 | 1014.4 |
| 20260507050056 | 41 | 255 | 0.0 | 0.0 | 0.00 | 0.94 | 0.00 | 95 | 1014.5 |
| 20260507044556 | 41 | 255 | 0.0 | 1.0 | 0.00 | 0.94 | 0.00 | 95 | 1014.8 |
| 20260507043052 | 41 | 255 | 0.0 | 0.0 | 0.00 | 0.94 | 0.00 | 95 | 1014.6 |
| 20260507041547 | 41 | 255 | 0.0 | 0.0 | 0.00 | 0.94 | 0.00 | 94 | 1014.4 |
| 20260507040107 | 41 | 255 | 0.0 | 0.0 | 0.00 | 1.04 | 0.00 | 95 | 1014.3 |
| 20260507034537 | 41 | 255 | 0.0 | 0.0 | 0.00 | 1.04 | 0.94 | 94 | 1014.1 |
| 20260507033024 | 41 | 255 | 0.0 | 0.0 | 0.00 | 1.04 | 0.94 | 94 | 1014.2 |
| 20260507031546 | 42 | 255 | 0.0 | 1.0 | 0.00 | 1.04 | 0.94 | 94 | 1014.2 |
| 20260507030030 | 42 | 255 | 0.0 | 1.0 | 0.00 | 1.05 | 0.94 | 95 | 1014.1 |
| 20260507024546 | 42 | 255 | 0.0 | 1.0 | 0.00 | 1.05 | 0.94 | 94 | 1014.1 |
| 20260507023046 | 42 | 265 | 0.0 | 0.0 | 0.00 | 1.05 | 0.94 | 94 | 1013.9 |
| 20260507021556 | 42 | 265 | 0.0 | 1.0 | 0.00 | 1.05 | 0.94 | 94 | 1014.1 |
| 20260507020055 | 42 | 265 | 0.0 | 0.0 | 0.00 | 1.09 | 0.94 | 94 | 1014.1 |
| 20260507014553 | 42 | 265 | 0.0 | 0.0 | 0.00 | 1.09 | 0.94 | 94 | 1014.0 |
| 20260507013015 | 42 | 265 | 0.0 | 0.0 | 0.00 | 1.09 | 0.94 | 94 | 1013.6 |
| 20260507011509 | 42 | 265 | 0.0 | 1.0 | 0.00 | 1.09 | 0.94 | 94 | 1013.8 |
| 20260507010014 | 42 | 265 | 0.0 | 2.0 | 0.00 | 1.14 | 0.94 | 94 | 1013.7 |
| 20260507004510 | 42 | 19 | 0.0 | 1.0 | 0.00 | 1.14 | 0.94 | 93 | 1013.5 |
| 20260507003036 | 42 | 24 | 0.0 | 0.0 | 0.00 | 1.14 | 0.94 | 93 | 1013.7 |
| 20260507001532 | 42 | 24 | 0.0 | 1.0 | 0.00 | 1.14 | 0.94 | 93 | 1013.5 |
| 20260507000020 | 42 | 24 | 0.0 | 2.0 | 0.02 | 1.21 | 0.94 | 92 | 1013.2 |
| 20260506234550 | 42 | 16 | 1.0 | 4.0 | 0.05 | 1.21 | 0.94 | 92 | 1013.2 |
| 20260506233112 | 43 | 344 | 2.0 | 9.0 | 0.09 | 1.21 | 0.94 | 91 | 1012.8 |
| 20260506233001 | 43 | 323 | 1.0 | 4.0 | 0.09 | 1.21 | 0.94 | 91 | 1012.9 |
| 20260506231524 | 44 | 335 | 1.0 | 4.0 | 0.11 | 1.21 | 0.94 | 91 | 1012.9 |
| 20260506230043 | 45 | 355 | 1.0 | 5.0 | 0.11 | 1.23 | 0.92 | 90 | 1012.7 |
| 20260506224556 | 47 | 355 | 2.0 | 7.0 | 0.09 | 1.20 | 0.89 | 89 | 1012.2 |
| 20260506223051 | 48 | 15 | 0.0 | 1.0 | 0.05 | 1.15 | 0.85 | 89 | 1011.6 |
| 20260506221557 | 48 | 15 | 0.0 | 1.0 | 0.02 | 1.12 | 0.83 | 88 | 1011.4 |
| 20260506220048 | 49 | 15 | 0.0 | 0.0 | 0.01 | 1.12 | 0.81 | 87 | 1011.3 |
| 20260506214520 | 49 | 15 | 0.0 | 3.0 | 0.00 | 1.12 | 0.80 | 85 | 1011.2 |
| 20260506213021 | 49 | 355 | 0.0 | 3.0 | 0.00 | 1.12 | 0.80 | 84 | 1011.0 |
| 20260506211528 | 49 | 188 | 0.0 | 2.0 | 0.00 | 1.12 | 0.80 | 85 | 1010.9 |
| 20260506210028 | 49 | 207 | 0.0 | 1.0 | 0.00 | 1.12 | 0.80 | 85 | 1011.0 |
| 20260506204540 | 49 | 207 | 0.0 | 2.0 | 0.00 | 1.12 | 0.80 | 85 | 1011.0 |
| 20260506203033 | 49 | 207 | 0.0 | 1.0 | 0.00 | 1.12 | 0.80 | 85 | 1011.1 |
| 20260506201550 | 49 | 220 | 0.0 | 1.0 | 0.00 | 1.12 | 0.80 | 85 | 1011.3 |
| 20260506200052 | 49 | 232 | 0.0 | 1.0 | 0.00 | 1.12 | 0.80 | 86 | 1011.2 |
| 20260506194548 | 49 | 254 | 0.0 | 2.0 | 0.00 | 1.12 | 0.80 | 88 | 1011.2 |
| 20260506193031 | 48 | 164 | 1.0 | 2.0 | 0.00 | 1.12 | 0.80 | 90 | 1011.0 |
| 20260506191527 | 47 | 181 | 0.0 | 1.0 | 0.00 | 1.12 | 0.80 | 91 | 1011.1 |
| 20260506190011 | 47 | 182 | 1.0 | 3.0 | 0.00 | 1.12 | 0.80 | 92 | 1011.2 |
| 20260506184509 | 46 | 117 | 0.0 | 2.0 | 0.00 | 1.12 | 0.80 | 93 | 1011.4 |
| 20260506183015 | 46 | 82 | 0.0 | 2.0 | 0.00 | 1.12 | 0.80 | 94 | 1011.4 |
| 20260506181537 | 45 | 10 | 0.0 | 4.0 | 0.00 | 1.12 | 0.80 | 94 | 1011.3 |
| 20260506180026 | 45 | 27 | 0.0 | 3.0 | 0.00 | 1.12 | 0.80 | 95 | 1011.5 |
| 20260506174527 | 45 | 36 | 0.0 | 4.0 | 0.00 | 1.12 | 0.80 | 94 | 1011.5 |
| 20260506173029 | 45 | 42 | 0.0 | 2.0 | 0.00 | 1.12 | 0.80 | 95 | 1011.4 |
| 20260506171524 | 45 | 355 | 1.0 | 4.0 | 0.00 | 1.12 | 0.80 | 95 | 1011.2 |
| 20260506170039 | 45 | 26 | 2.0 | 4.0 | 0.00 | 1.12 | 0.80 | 96 | 1010.9 |
| 20260506164612 | 44 | 27 | 3.0 | 6.0 | 0.00 | 1.12 | 0.80 | 96 | 1011.0 |
| 20260506163024 | 44 | 346 | 1.0 | 5.0 | 0.00 | 1.12 | 0.80 | 96 | 1010.9 |
| 20260506161505 | 44 | 76 | 1.0 | 4.0 | 0.00 | 1.12 | 0.80 | 96 | 1011.1 |
| 20260506160018 | 43 | 42 | 1.0 | 3.0 | 0.01 | 1.12 | 0.80 | 96 | 1011.0 |
| 20260506154537 | 43 | 57 | 2.0 | 5.0 | 0.01 | 1.12 | 0.80 | 96 | 1010.9 |